Location: ??????????
(44.2167°N, 135.5333°E)
Time: 13:54:51
(UTC+00:00)

Cosmos 1190 Rocket - Pass Details

Date: 15 June 2025
Orbit: 754 x 775 km, 74.1° (Epoch: 15 July)

Event Time Altitude Azimuth Distance (km) Brightness Sun altitude
Exits shadow 14:13:52 50° 161° (SSE) 980 4.1 -21.7°
Maximum altitude 14:15:02 64° 107° (ESE) 853 4.0 -21.7°
Drops below altitude 10° 14:20:15 10° 26° (NNE) 2,323 7.2 -21.9°
Sets 14:22:39 0° 24° (NNE) 3,251 8.2 -22.0°
